Weather History for Florala, AL

Change the Weather History Date:

Monday, October 21, 2013

  Actual Average (KCEW) Record (KCEW)
Temperature  
Mean Temperature 65 °F -  
Max Temperature 73 °F 80 °F 88 °F (1979)
Min Temperature 57 °F 50 °F 29 °F (1989)
Growing Degree Days 15 (Base 50)    
Moisture  
Dew Point 59 °F    
Average Humidity 82    
Maximum Humidity 93    
Minimum Humidity 66    
Precipitation  
Precipitation 0.00 in - - ()
Sea Level Pressure  
Sea Level Pressure 30.04 in    
Wind  
Wind Speed 2 mph (North)    
Max Wind Speed 6 mph    
Max Gust Speed -    
Visibility 10 miles    
Events Rain    
Averages and records for this station are not official NWS values.
T = Trace of Precipitation, MM = Missing Value Source: NWS Daily Summary

Daily Weather History Graph

Daily Weather History Graph

Search for Another Location

Airport:

Trip Planner

Search our weather history database for the weather conditions in past years. The results will help you decide how hot, cold, wet, or windy it might be!

Date:

Astronomy

Oct. 21, 2013 Rise Set
Actual Time 6:52 AM CDT 6:06 PM CDT
Civil Twilight 6:27 AM CDT 6:31 PM CDT
Nautical Twilight 5:59 AM CDT 6:59 PM CDT
Astronomical Twilight 5:31 AM CDT 7:27 PM CDT
Moon 8:08 PM CDT (10/21) 9:17 AM CDT (10/21)
Length of Visible Light 12h 03m
Length of Day
11h 14m
Waning Gibbous, 92% of the Moon is Illuminated
Oct 21
Waning Gibbous
Oct 26
Last Quarter
Nov 3
New
Nov 9
First Quarter
Nov 17
Full

Hourly Weather History & Observations

Time (CDT) Temp. Dew Point Humidity Pressure Visibility Wind Dir Wind Speed Gust Speed Precip Events Conditions
12:58 AM 59.0 °F 55.0 °F 87% 30.03 in 10.0 mi North 3.5 mph - N/A   Clear
1:58 AM 59.0 °F 55.0 °F 87% 30.03 in 10.0 mi NE 3.5 mph - N/A   Clear
2:58 AM 60.1 °F 55.0 °F 83% 30.03 in 10.0 mi Calm Calm - N/A   Clear
3:58 AM 59.0 °F 55.9 °F 90% 30.02 in 10.0 mi North 4.6 mph - N/A   Clear
4:58 AM 57.0 °F 55.0 °F 93% 30.04 in 10.0 mi Calm Calm - N/A   Clear
5:58 AM 59.0 °F 54.0 °F 83% 30.04 in 10.0 mi Calm Calm - N/A   Clear
6:58 AM 57.9 °F 54.0 °F 87% 30.06 in 10.0 mi North 3.5 mph - N/A   Clear
7:58 AM 59.0 °F 54.0 °F 83% 30.06 in 10.0 mi North 4.6 mph - N/A   Clear
8:58 AM 61.0 °F 55.0 °F 81% 30.08 in 10.0 mi NNE 4.6 mph - N/A   Clear
9:58 AM 64.0 °F 55.9 °F 75% 30.08 in 10.0 mi NE 4.6 mph - N/A   Clear
10:58 AM 66.9 °F 57.0 °F 70% 30.08 in 10.0 mi Calm Calm - N/A   Clear
11:58 AM 69.1 °F 59.0 °F 70% 30.06 in 10.0 mi Calm Calm - N/A   Clear
12:58 PM 71.1 °F 61.0 °F 70% 30.05 in 10.0 mi Calm Calm - N/A   Clear
1:58 PM 73.0 °F 61.0 °F 66% 30.02 in 10.0 mi NW 3.5 mph - N/A   Clear
2:58 PM 73.0 °F 61.0 °F 66% 30.02 in 10.0 mi Calm Calm - N/A   Clear
3:58 PM 72.0 °F 63.0 °F 73% 30.00 in 10.0 mi Calm Calm - N/A   Clear
4:58 PM 70.0 °F 64.0 °F 81% 30.01 in 10.0 mi Calm Calm - N/A   Mostly Cloudy
5:58 PM 69.1 °F 64.0 °F 84% 30.02 in 10.0 mi Calm Calm - 0.00 in   Scattered Clouds
6:58 PM 66.9 °F 63.0 °F 87% 30.02 in 10.0 mi Calm Calm - N/A   Clear
7:58 PM 66.9 °F 62.1 °F 84% 30.03 in 10.0 mi NNW 3.5 mph - 0.00 in Rain Light Rain
8:58 PM 66.0 °F 62.1 °F 87% 30.03 in 10.0 mi Calm Calm - 0.00 in   Clear
9:58 PM 64.9 °F 61.0 °F 87% 30.02 in 10.0 mi NNE 5.8 mph - N/A   Scattered Clouds
10:58 PM 64.0 °F 62.1 °F 93% 30.03 in 10.0 mi Calm Calm - N/A   Clear
11:58 PM 64.0 °F 62.1 °F 93% 30.01 in 9.0 mi Calm Calm - N/A   Overcast